Location: Poughquag
(41.6090°N, 73.6820°W)
Time: 12:41:41
(UTC-04:00)

Tiros 1 - Pass Details

Date: 29 May 2020
Orbit: 630 x 664 km, 48.4° (Epoch: 06 July)

Event Time Altitude Azimuth Distance (km) Brightness Sun altitude
Rises 21:17:52 0° 284° (WNW) 2,923 11.8 -9.5°
Reaches altitude 10° 21:21:15 10° 259° (WSW) 2,006 10.2 -10.0°
Maximum altitude 21:23:32 14° 229° (SW) 1,771 9.5 -10.3°
Drops below altitude 10° 21:25:48 10° 199° (SSW) 1,997 9.4 -10.6°
Enters shadow 21:27:54 - 181° (S) 2,510 9.8 -10.9°
Sets 21:29:10 0° 173° (S) 2,898 - -11.1°
